Content
SEND FEEDBACK

Daily
Averages
Monthly
Summary
United States of America

CAMP QUEZON, GUAM


Home > North America > United States > Guam
Elevation: 269 feet     Latitude: 13 28N     Longitude: 144 48E

WEATHER
 
SELECT A DAY
Number of Records: 208,997;   Date Range: 1/1/95 - 7/26/14
 
SHARE

PRINT THIS DATA

[ ← Previous Day ]
WEATHER ALMANAC - JULY 3, 2013
[ Next Day → ]
[ °C ]   °F
Weather ElementAverageHighLow
Temperature86.6 °F91.9 °F (10:54 am)81 °F (3:54 am)
Dewpoint75.6 °F78.8 °F (7:07 am)72 °F (12:54 pm)
Humidity70.4 %88 % (3:54 am)52 % (12:54 pm)
Barometer29.86 in29.91 in (8:40 am)29.81 in (2:54 pm)
Wind Speed8.4 mph16.1 mph (2:54 pm)
Weather ElementAverage
Visibility10 mi
Wind DirectionENE (72.2 °)

Weather ElementTotal
Precipitation---
Cooling Degree Days21.5 (Base 65)
Growing Degree Days36.5 (Base 50)
Averaged from 27 records on July 3, 2013
WEATHER CONDITIONS BREAKOUT
WIND DIRECTION BREAKOUT
WEATHER BY HOUR - JULY 3, 2013
[ °C ]   °F
Local TimeTemperatureDewpointHumidityBarometerVisibilityWind DirectionWind SpeedGust SpeedPrecipitationEventsConditions
1:54 AM82.0 °F75.0 °F79 %29.84 in10.0 miEast (80°)8.1 mph0.00 inClear
2:54 AM82.0 °F75.9 °F82 %29.83 in10.0 miEast (90°)4.6 mphClear
3:54 AM81.0 °F77.0 °F88 %29.83 in10.0 miEast (100°)3.5 mphClear
4:54 AM82.0 °F77.0 °F85 %29.83 in10.0 miEast (100°)3.5 mphPartly Cloudy
5:54 AM82.9 °F77.0 °F82 %29.85 in10.0 miEast (80°)5.8 mphClear
6:54 AM84.9 °F77.0 °F77 %29.87 in10.0 miEast (90°)4.6 mphScattered Clouds
7:07 AM86.0 °F78.8 °F79 %29.90 in10.0 miEast (90°)5.8 mphMostly Cloudy
7:20 AM86.0 °F77.0 °F74 %29.90 in10.0 miEast (80°)8.1 mphMostly Cloudy
7:54 AM86.0 °F77.0 °F74 %29.88 in10.0 miENE (70°)8.1 mphPartly Cloudy
8:40 AM87.8 °F75.2 °F66 %29.91 in10.0 miEast (90°)6.9 mphMostly Cloudy
8:54 AM88.0 °F75.9 °F67 %29.88 in10.0 miENE (70°)9.2 mphMostly Cloudy
9:01 AM87.8 °F77.0 °F70 %29.91 in10.0 miEast (80°)9.2 mphScattered Clouds
9:54 AM89.1 °F73.9 °F61 %29.88 in10.0 miENE (70°)9.2 mphPartly Cloudy
10:54 AM91.9 °F73.0 °F54 %29.88 in10.0 miNE (50°)9.2 mphScattered Clouds
11:54 AM91.0 °F75.0 °F59 %29.85 in10.0 miENE (70°)9.2 mphScattered Clouds
12:54 PM91.9 °F72.0 °F52 %29.84 in10.0 miENE (70°)13.8 mphPartly Cloudy
1:54 PM91.9 °F73.0 °F54 %29.83 in10.0 miENE (70°)11.5 mphClear
2:54 PM91.0 °F73.0 °F55 %29.81 in10.0 miENE (60°)16.1 mphPartly Cloudy
3:54 PM91.0 °F73.9 °F57 %29.81 in10.0 miEast (80°)15.0 mphPartly Cloudy
4:54 PM89.1 °F75.0 °F63 %29.81 in10.0 miEast (80°)9.2 mphPartly Cloudy
5:54 PM89.1 °F75.0 °F63 %29.81 in10.0 miENE (70°)10.4 mphPartly Cloudy
6:54 PM86.0 °F75.9 °F72 %29.83 in10.0 miNE (50°)9.2 mphPartly Cloudy
7:54 PM84.9 °F75.9 °F74 %29.85 in10.0 miNE (50°)5.8 mphPartly Cloudy
8:54 PM84.9 °F77.0 °F77 %29.86 in10.0 miENE (60°)6.9 mphPartly Cloudy
9:54 PM84.0 °F77.0 °F79 %29.88 in10.0 miNE (50°)6.9 mphPartly Cloudy
10:54 PM84.2 °F75.2 °F74 %29.87 in10.0 miENE (60°)8.1 mphClear
11:54 PM82.4 °F77.0 °F84 %29.87 in10.0 miNE (40°)8.1 mphPartly Cloudy
Hourly data recorded from PGUM, located miles away from Camp Quezon, Guam







STORIES FROM OUR PARTNERS